Voltar ao catálogo

SL-3 R/B

AtivoPO
NORAD 12904·ROCKET BODY·🇷🇺 Russia

Lançado Oct 13, 1981 de Plesetsk Cosmodrome

Loading…

Próximas Passagens (próximas 24 horas)

TLE

AtualizadoSource: Space-Track

Época: Sep 14, 2026, 21:21 UTC

1 12904U 81103B   26257.89006843  .00003800  00000-0  16069-3 0  9995
2 12904  81.1614 351.1895 0012735  12.6170 347.5378 15.22899890  2020

Acompanhe SL-3 R/B em tempo real com AllMySat

Download on the App Store